Regional Weather Roundup
Issued by NWS Kansas City/Pleasant Hill, MO

Home | Current Version | Previous Version | Graphics & Text | Print | Product List | Glossary Off
Versions: 1 2 3 4 5 6 7 8 9 10 11 12 13 14 15 16 17 18 19 20 21 22 23 24 25 26 27 28

000
ASUS43 KEAX 161310
RWREAX

WEATHER ROUNDUP FOR EASTERN KANSAS AND NORTHWEST MISSOURI
NATIONAL WEATHER SERVICE KANSAS CITY/PLEASANT HILL MO
800 AM CDT MON OCT 16 2017

KSZ040-057-103>105-MOZ028-029-037-043-161400-
...KANSAS CITY METROPOLITAN AREA...

CITY           SKY/WX    TMP DP  RH WIND       PRES   REMARKS
K.C. INTL      CLEAR     39  37  92 SW6       30.39S WCI  35
K.C. DOWNTOWN  CLEAR     44  42  93 SW3       30.40R
LEES SUMMIT    CLEAR     43  39  86 SW7       30.40R
OLATHE - IXD   CLEAR     42  37  82 CALM      30.40S
OLATHE - OJC   CLEAR     43  37  79 W3        30.40R
LAWRENCE       CLEAR     36  36 100 CALM      30.40S FOG

$$

MOZ001>008-011>017-020>025-030>033-038>040-044>046-053-054-161400-
...NORTHERN AND CENTRAL MISSOURI...

CITY           SKY/WX    TMP DP  RH WIND       PRES   REMARKS
ST. JOSEPH     FOG       34  34 100 CALM      30.39S VSB<1/4
MOSBY          SUNNY     36  34  93 CALM      30.40S
WARRENSBURG    CLEAR     37  36  93 CALM      30.40S
WHITEMAN AFB   CLEAR     42  37  84 W5        30.36R
CLINTON        CLEAR     37  37 100 CALM      30.41S
SEDALIA        CLEAR     44  40  85 SW9       30.40S
WARSAW         NOT AVBL
CHILLICOTHE      N/A     36  36 100 CALM      30.39R
KIRKSVILLE     CLEAR     41  39  93 SW3       30.37R

$$

MOZ041-047>049-056>058-063>065-088>090-097-161400-
...EASTERN AND SOUTHERN MISSOURI...

CITY           SKY/WX    TMP DP  RH WIND       PRES   REMARKS
ST. LOUIS INTL CLEAR     46  44  93 CALM      30.39S
SPIRIT OF STL  FOG       42  42 100 SW3       30.39R VSB 1/4
COLUMBIA       CLEAR     46  38  73 W3        30.39S
JEFFERSON CITY FOG       40  39  97 CALM      30.41R VSB 1
ROLLA          CLEAR     42  39  89 CALM      30.40R
OSAGE BEACH    CLEAR     37  36  96 CALM      30.41S
SPRINGFIELD    CLEAR     39  37  92 CALM      30.41R
BRANSON        CLEAR     39  39 100 CALM      30.41S
JOPLIN         CLEAR     39  39 100 CALM      30.42S
WEST PLAINS    CLEAR     43  40  89 CALM      30.40R

$$

IAZ060-094-KSZ022-034>040-054-083-096-NEZ052-066-093-161400-
...KANSAS...SOUTHEAST NEBRASKA AND IOWA...

CITY           SKY/WX    TMP DP  RH WIND       PRES   REMARKS
TOPEKA         CLEAR     38  38 100 CALM      30.40S
MANHATTAN      CLEAR     36  35  96 CALM      30.39S
EMPORIA        CLEAR     40  36  86 CALM      30.40S
CHANUTE        CLEAR     40  38  93 CALM      30.42S
WICHITA        CLEAR     39  38  96 S6        30.40F WCI  35
OMAHA          CLEAR     41  35  79 S7        30.34S
LINCOLN        CLEAR     36  34  92 S5        30.35S WCI  32
FALLS CITY     CLEAR     35  33  92 CALM      30.36F
LAMONI         CLEAR     42  35  76 W6        30.35R
DES MOINES     PTCLDY    40  35  83 SW3       30.32S

$$





USA.gov is the U.S. government's official web portal to all federal, state and local government web resources and services.